map of MXP home
MXP - Airport
Location
City:  Milan, Lombardy, Italy
Near (Alt.):Milano
Name:Malpensa
ICAO:LIMC
IATA:MXP

Details
Type:Airport (Aerodrome, Airfield)
Use:Public/Civil, International (customs port of entry)
Latitude:4537'50"N (45.630606)
Longitude:843'41"E (8.728111)
Datum:WGS 1984
Elevation:767 ft (234 m)
Variation:2.47E (WMM2015 magnetic declination)
0.12 annual change
Runways:2
Longest:12861 × 197 ft (3920 × 60 m), paved

Time
Time Zone:UTC+1 (DST+2)
Local Time:

Weather
METAR:LIMC 152150Z 02004KT 9999 SCT040 BKN070 15/12 Q1021 NOSIG
TAF:LIMC 151700Z 1518/1624 VRB05KT 9999 SCT060

Related Locations
Nearby:
Farthest:CHT: 12154 mi / 19560 km
Waitangi [Tuuta], CIT, NZ

Find:

   beyond  
but within

Other Information
Maps:
NOTAMs:
Links:
Sources:

  
  • flag of Italy
  • flag of Lombardy
  • flag of Milan
  

Sectional Chart

Flight Planning
at skyvector.com

Satellite Image

Google Maps Satellite view

 

Copyright © 2004-2018 Karl L. Swartz. All rights reserved.
The Great Circle Mapper name and logo are trademarks of the Great Circle Mapper.
All other trademarks mentioned herein belong to their respective owners.
Please see credits for attibutions and further copyright information.

  Follow gcmap on Facebook Follow gcmap on Twitter Follow gcmap on Google+ GCmap on LinkedIn

hCard Microformat

Geo Microformat